星链-1759 (STARLINK-1759 )

导读

STARLINK-1759是美国太空探索技术公司(SpaceX)星链(Starlink)星座中的一颗低轨通信卫星,于北京时间2020年9月3日发射入轨,属于星链计划首批组网卫星之一。 该卫星运行在近地轨道,主要为全球提供高速宽带互联网接入服务,尤其覆盖偏远地区与网络基础设施薄弱区域,支撑卫星互联网组网服务,是SpaceX大规模商业卫星星座建设的组成单元,推动全球卫星通信网络部署进程。

基本信息
目录编号:
46340
目录名称:
STARLINK-1759
国际标识:
2020-062R
轨道中心:
EARTH
卫星名称:
星链-1759
卫星全名:
星链-1759 (STARLINK-1759 )
卫星状态:
在轨 (已飞行2114 天)
发射日期:
2020-09-03 UTC
国别 :
美国 (US)
星等 :
--
轨道信息
数据来源 国际轨道数据
星历时间: 2026-06-19T00:00:04+0800
4小时前
查看轨道信息
半长轴: 6684.708km
偏心率: 0.0009332
轨道倾角: 53.010°
近地点辐角 9.505°
升交点赤经 189.409°
平近点角 202.416°
近地点: 300.332km
远地点: 312.81km
周期: 90.653分钟
每日圈数: 15.884704
详细信息
固有亮度:
5
最大亮度:
2.5
卫星平台:
Starlink V1.0
覆盖范围:
全球
运营商:
太空探索技术公司
运营商所在国:
美国
制造商(研发单位):
太空探索技术公司
制造商所在国:
美国
使用方式:
暂无
卫星简介
星链(Starlink)计划是由太空探索技术公司(SpaceX)提出的一个巨型低轨卫星互联网星座项目,计划在2019年至2024年间在太空搭建由约1.2万颗卫星组成的“星链”网络,其中1584颗将部署在地球上空550千米处的近地轨道,并从2020年开始工作。该卫星仍在工作。
2D轨道图
3D轨道图
轨道高度分析图
轨道倾角分析图
轨道综合分析图
查看轨道综合分析图